Burbank, CA

7:58 PM PDT on June 25, 2017 (GMT -0700)
Burbank-Glendale-Pasadena

Weather History for KBUR - January, 2014

Change the Weather History Date:

Thursday, January 2, 2014

  Actual Average Record
Temperature  
Mean Temperature 67 °F 54 °F  
Max Temperature 84 °F 67 °F 84 °F (2014)
Min Temperature 50 °F 41 °F 27 °F (1974)
Degree Days  
Heating Degree Days 0 11  
Month to date heating degree days 4 22  
Since 1 July heating degree days 302 589  
Cooling Degree Days 2 0  
Month to date cooling degree days 2 0  
Year to date cooling degree days 2 0  
Growing Degree Days 16 (Base 50)    
Moisture  
Dew Point 25 °F    
Average Humidity 24    
Maximum Humidity 38    
Minimum Humidity 9    
Precipitation  
Precipitation 0.00 in 0.11 in 1.83 in (2006)
Month to date precipitation 0.00 0.22  
Year to date precipitation 0.00 0.22  
Since 1 July precipitation 0.43  
Sea Level Pressure  
Sea Level Pressure 30.02 in    
Wind  
Wind Speed 2 mph (West)    
Max Wind Speed 10 mph    
Max Gust Speed 15 mph    
Visibility 10 miles    
Events      
T = Trace of Precipitation, MM = Missing Value Source: NWS Daily Summary

Daily Weather History Graph

Daily Weather History Graph

Search for Another Location

Airport or City:

Trip Planner

Search our weather history database for the weather conditions in past years. The results will help you decide how hot, cold, wet, or windy it might be!

Date:

Astronomy

Jan. 02, 2014 Rise Set
Actual Time 6:59 AM PST 4:55 PM PST
Civil Twilight 6:31 AM PST 5:23 PM PST
Nautical Twilight 6:00 AM PST 5:54 PM PST
Astronomical Twilight 5:30 AM PST 6:25 PM PST
Moon 7:49 AM PST (1/2) 6:52 PM PST (1/2)
Length of Visible Light 10h 51m
Length of Day
9h 56m
Waxing Crescent, 3% of the Moon is Illuminated
Jan 2
Waxing Crescent
Jan 7
First Quarter
Jan 15
Full
Jan 23
Last Quarter
Jan 30
New

Hourly Weather History & Observations

Time (PST) Temp. Dew Point Humidity Pressure Visibility Wind Dir Wind Speed Gust Speed Precip Events Conditions
12:53 AM 54.0 °F 26.1 °F 34% 30.06 in 10.0 mi Calm Calm - N/A   Clear
1:53 AM 53.1 °F 26.1 °F 35% 30.06 in 7.0 mi Calm Calm - N/A   Clear
2:53 AM 52.0 °F 26.1 °F 37% 30.06 in 10.0 mi Calm Calm - N/A   Clear
3:53 AM 54.0 °F 25.0 °F 33% 30.05 in 10.0 mi Calm Calm - N/A   Clear
4:53 AM 52.0 °F 26.1 °F 37% 30.05 in 10.0 mi Calm Calm - N/A   Clear
5:53 AM 55.0 °F 25.0 °F 31% 30.05 in 10.0 mi Calm Calm - N/A   Clear
6:53 AM 51.1 °F 25.0 °F 36% 30.06 in 10.0 mi Calm Calm - N/A   Clear
7:53 AM 54.0 °F 27.0 °F 35% 30.07 in 10.0 mi Calm Calm - N/A   Clear
8:53 AM 62.1 °F 25.0 °F 24% 30.08 in 10.0 mi Calm Calm - N/A   Clear
9:53 AM 66.9 °F 26.1 °F 21% 30.09 in 10.0 mi Calm Calm - N/A   Clear
10:53 AM 77.0 °F 18.0 °F 11% 30.07 in 10.0 mi Calm Calm - N/A   Clear
11:53 AM 79.0 °F 18.0 °F 10% 30.03 in 10.0 mi Calm Calm - N/A   Clear
12:53 PM 82.0 °F 21.0 °F 10% 29.99 in 10.0 mi Calm Calm - N/A   Clear
1:53 PM 82.9 °F 19.0 °F 9% 29.96 in 10.0 mi WSW 8.1 mph - N/A   Clear
2:53 PM 82.0 °F 18.0 °F 9% 29.96 in 10.0 mi WSW 5.8 mph - N/A   Clear
3:53 PM 82.0 °F 19.9 °F 10% 29.96 in 10.0 mi West 5.8 mph - N/A   Clear
4:53 PM 75.9 °F 32.0 °F 20% 29.96 in 10.0 mi SSE 4.6 mph - N/A   Clear
5:53 PM 72.0 °F 33.1 °F 24% 29.97 in 10.0 mi SE 5.8 mph - N/A   Clear
6:53 PM 66.9 °F 35.1 °F 31% 29.99 in 10.0 mi Calm Calm - N/A   Clear
7:53 PM 66.0 °F 27.0 °F 23% 29.99 in 10.0 mi Calm Calm - N/A   Clear
8:53 PM 64.0 °F 26.1 °F 24% 29.99 in 10.0 mi North 4.6 mph - N/A   Clear
9:53 PM 61.0 °F 27.0 °F 27% 30.00 in 10.0 mi Calm Calm - N/A   Clear
10:53 PM 59.0 °F 28.0 °F 31% 30.00 in 10.0 mi North 5.8 mph - N/A   Clear
11:53 PM 57.0 °F 28.0 °F 33% 29.99 in 10.0 mi Calm Calm - N/A   Clear